Time,TemperatureF,DewpointF,PressureIn,WindDirection,WindDirectionDegrees,WindSpeedMPH,WindSpeedGustMPH,Humidity,HourlyPrecipIn,Conditions,Clouds,dailyrainin,SoftwareType,DateUTC
2013-03-20 00:00:00,42.1,39.7,29.57,North,0,0.0,6.9,91,0.07,,,0.00,WUHU216HW,2013-03-20 07:00:00,
2013-03-20 00:05:00,42.1,39.7,29.57,SW,225,0.9,6.9,91,0.07,,,0.01,WUHU216HW,2013-03-20 07:05:00,
2013-03-20 00:10:00,42.1,39.7,29.57,NE,45,0.2,1.8,91,0.07,,,0.02,WUHU216HW,2013-03-20 07:10:00,
2013-03-20 00:15:00,42.1,39.7,29.56,NE,45,0.2,1.8,91,0.08,,,0.03,WUHU216HW,2013-03-20 07:15:00,
2013-03-20 00:20:00,42.1,39.7,29.56,NNE,23,0.4,1.1,91,0.08,,,0.03,WUHU216HW,2013-03-20 07:20:00,
2013-03-20 00:25:00,42.1,39.7,29.55,NNE,23,0.2,1.1,91,0.09,,,0.04,WUHU216HW,2013-03-20 07:25:00,
2013-03-20 00:30:00,42.1,39.7,29.55,East,90,0.0,1.1,91,0.09,,,0.05,WUHU216HW,2013-03-20 07:30:00,
2013-03-20 00:35:00,42.1,39.7,29.55,NNW,338,0.2,1.1,91,0.10,,,0.06,WUHU216HW,2013-03-20 07:35:00,
2013-03-20 00:40:00,42.1,39.7,29.55,West,270,0.4,1.1,91,0.10,,,0.07,WUHU216HW,2013-03-20 07:40:00,
2013-03-20 00:45:00,42.1,39.7,29.55,WSW,248,0.0,1.1,91,0.11,,,0.08,WUHU216HW,2013-03-20 07:45:00,
2013-03-20 00:50:00,42.3,39.9,29.54,WSW,248,1.1,2.0,91,0.11,,,0.09,WUHU216HW,2013-03-20 07:50:00,
2013-03-20 00:55:00,42.3,39.9,29.54,ESE,113,0.2,2.0,91,0.11,,,0.10,WUHU216HW,2013-03-20 07:55:00,
2013-03-20 01:00:00,42.3,39.9,29.54,ESE,113,0.4,1.8,91,0.10,,,0.10,WUHU216HW,2013-03-20 08:00:00,
2013-03-20 01:05:00,42.1,39.7,29.54,East,90,0.0,0.7,91,0.10,,,0.11,WUHU216HW,2013-03-20 08:05:00,
2013-03-20 01:10:00,42.1,39.7,29.53,ENE,68,0.4,0.7,91,0.09,,,0.11,WUHU216HW,2013-03-20 08:10:00,
2013-03-20 01:15:00,42.1,39.7,29.53,ENE,68,0.0,0.7,91,0.08,,,0.11,WUHU216HW,2013-03-20 08:15:00,
2013-03-20 01:20:00,42.1,39.7,29.53,ENE,68,0.7,0.9,91,0.09,,,0.12,WUHU216HW,2013-03-20 08:20:00,
2013-03-20 01:25:00,42.1,39.7,29.52,NE,45,0.4,1.3,91,0.08,,,0.12,WUHU216HW,2013-03-20 08:25:00,
2013-03-20 01:30:00,42.3,39.9,29.52,ENE,68,0.4,1.3,91,0.07,,,0.12,WUHU216HW,2013-03-20 08:30:00,
2013-03-20 01:35:00,42.1,39.7,29.52,ENE,68,0.4,1.1,91,0.07,,,0.13,WUHU216HW,2013-03-20 08:35:00,
2013-03-20 01:40:00,42.3,39.9,29.51,NE,45,0.4,1.1,91,0.06,,,0.13,WUHU216HW,2013-03-20 08:40:00,
2013-03-20 01:45:00,42.3,39.9,29.51,WSW,248,0.4,1.1,91,0.06,,,0.14,WUHU216HW,2013-03-20 08:45:00,
2013-03-20 01:50:00,42.5,40.1,29.51,WSW,248,1.1,1.1,91,0.05,,,0.14,WUHU216HW,2013-03-20 08:50:00,
2013-03-20 01:55:00,42.7,40.2,29.51,SE,135,0.0,1.1,91,0.05,,,0.15,WUHU216HW,2013-03-20 08:55:00,
2013-03-20 02:00:00,42.8,40.4,29.50,SSW,203,0.2,1.1,91,0.05,,,0.15,WUHU216HW,2013-03-20 09:00:00,
2013-03-20 02:05:00,43.0,40.9,29.50,SSE,158,0.4,1.1,92,0.05,,,0.16,WUHU216HW,2013-03-20 09:05:00,
2013-03-20 02:10:00,43.4,41.2,29.50,West,270,0.2,1.3,92,0.05,,,0.16,WUHU216HW,2013-03-20 09:10:00,
2013-03-20 02:15:00,43.6,41.4,29.50,SW,225,0.9,1.8,92,0.05,,,0.16,WUHU216HW,2013-03-20 09:15:00,
2013-03-20 02:20:00,43.7,41.6,29.50,WSW,248,1.6,1.8,92,0.04,,,0.16,WUHU216HW,2013-03-20 09:20:00,
2013-03-20 02:25:00,43.9,41.8,29.49,SW,225,2.5,4.9,92,0.05,,,0.17,WUHU216HW,2013-03-20 09:25:00,
2013-03-20 02:30:00,44.1,41.9,29.49,SW,225,1.3,4.9,92,0.06,,,0.18,WUHU216HW,2013-03-20 09:30:00,
2013-03-20 02:35:00,44.3,42.1,29.49,SW,225,0.4,2.5,92,0.05,,,0.18,WUHU216HW,2013-03-20 09:35:00,
2013-03-20 02:40:00,44.3,42.1,29.48,SSW,203,0.4,2.0,92,0.05,,,0.18,WUHU216HW,2013-03-20 09:40:00,
2013-03-20 02:45:00,44.3,42.1,29.48,SW,225,2.0,2.0,92,0.04,,,0.18,WUHU216HW,2013-03-20 09:45:00,
2013-03-20 02:50:00,44.5,42.3,29.48,WSW,248,1.8,3.6,92,0.04,,,0.18,WUHU216HW,2013-03-20 09:50:00,
2013-03-20 02:55:00,44.5,42.3,29.48,SW,225,1.6,4.7,92,0.03,,,0.18,WUHU216HW,2013-03-20 09:55:00,
2013-03-20 03:00:00,44.5,42.3,29.47,SSW,203,2.0,4.7,92,0.03,,,0.18,WUHU216HW,2013-03-20 10:00:00,
2013-03-20 03:05:00,44.6,42.5,29.47,WSW,248,0.7,3.6,92,0.02,,,0.18,WUHU216HW,2013-03-20 10:05:00,
2013-03-20 03:10:00,44.6,42.5,29.47,WSW,248,0.7,2.2,92,0.02,,,0.18,WUHU216HW,2013-03-20 10:10:00,
2013-03-20 03:15:00,44.8,42.7,29.46,WSW,248,0.4,3.8,92,0.02,,,0.18,WUHU216HW,2013-03-20 10:15:00,
2013-03-20 03:20:00,45.0,42.8,29.46,WSW,248,0.9,3.8,92,0.02,,,0.18,WUHU216HW,2013-03-20 10:20:00,
2013-03-20 03:25:00,45.0,42.8,29.46,SE,135,0.7,3.1,92,0.01,,,0.18,WUHU216HW,2013-03-20 10:25:00,
2013-03-20 03:30:00,45.0,42.8,29.46,WSW,248,1.1,2.5,92,0.00,,,0.18,WUHU216HW,2013-03-20 10:30:00,
2013-03-20 03:35:00,45.2,43.0,29.45,WSW,248,0.4,2.5,92,0.00,,,0.18,WUHU216HW,2013-03-20 10:35:00,
2013-03-20 03:40:00,45.2,43.0,29.45,SSE,158,0.7,1.8,92,0.01,,,0.19,WUHU216HW,2013-03-20 10:40:00,
2013-03-20 03:45:00,45.2,43.0,29.45,SE,135,0.0,1.8,92,0.01,,,0.19,WUHU216HW,2013-03-20 10:45:00,
2013-03-20 03:50:00,45.2,43.0,29.45,WSW,248,1.1,1.8,92,0.01,,,0.19,WUHU216HW,2013-03-20 10:50:00,
2013-03-20 03:55:00,45.2,43.0,29.45,ESE,113,2.2,2.5,92,0.01,,,0.19,WUHU216HW,2013-03-20 10:55:00,
2013-03-20 04:00:00,45.2,43.0,29.45,SSW,203,2.2,2.7,92,0.02,,,0.20,WUHU216HW,2013-03-20 11:00:00,
2013-03-20 04:05:00,45.2,43.0,29.45,WSW,248,0.4,3.1,92,0.03,,,0.21,WUHU216HW,2013-03-20 11:05:00,
2013-03-20 04:10:00,45.2,43.0,29.44,West,270,0.2,3.1,92,0.04,,,0.22,WUHU216HW,2013-03-20 11:10:00,
2013-03-20 04:15:00,45.4,43.2,29.44,WSW,248,0.0,1.8,92,0.05,,,0.23,WUHU216HW,2013-03-20 11:15:00,
2013-03-20 04:20:00,45.4,43.2,29.44,SSW,203,0.0,1.3,92,0.06,,,0.24,WUHU216HW,2013-03-20 11:20:00,
2013-03-20 04:25:00,45.4,43.2,29.43,NW,315,0.7,1.3,92,0.07,,,0.25,WUHU216HW,2013-03-20 11:25:00,
2013-03-20 04:30:00,45.5,43.4,29.43,ENE,68,0.0,1.1,92,0.07,,,0.25,WUHU216HW,2013-03-20 11:30:00,
2013-03-20 04:35:00,45.5,43.4,29.43,SSE,158,0.0,1.1,92,0.09,,,0.27,WUHU216HW,2013-03-20 11:35:00,
2013-03-20 04:40:00,45.5,43.4,29.42,NNE,23,0.0,0.7,92,0.10,,,0.29,WUHU216HW,2013-03-20 11:40:00,
2013-03-20 04:45:00,45.7,43.6,29.42,SE,135,0.0,1.8,92,0.11,,,0.30,WUHU216HW,2013-03-20 11:45:00,
2013-03-20 04:50:00,45.7,43.6,29.41,SSW,203,0.2,1.8,92,0.12,,,0.31,WUHU216HW,2013-03-20 11:50:00,
2013-03-20 04:55:00,45.7,43.6,29.40,SSE,158,0.0,0.7,92,0.13,,,0.32,WUHU216HW,2013-03-20 11:55:00,
2013-03-20 05:00:00,45.7,43.6,29.40,SSW,203,0.0,0.4,92,0.12,,,0.32,WUHU216HW,2013-03-20 12:00:00,
2013-03-20 05:05:00,45.9,44.0,29.40,WSW,248,0.0,0.4,93,0.11,,,0.32,WUHU216HW,2013-03-20 12:05:00,
2013-03-20 05:10:00,46.1,44.2,29.40,SSW,203,1.6,1.6,93,0.11,,,0.33,WUHU216HW,2013-03-20 12:10:00,
2013-03-20 05:15:00,46.3,44.4,29.40,ESE,113,0.7,2.2,93,0.11,,,0.34,WUHU216HW,2013-03-20 12:15:00,
2013-03-20 05:20:00,46.4,44.6,29.40,NE,45,0.0,2.2,93,0.12,,,0.36,WUHU216HW,2013-03-20 12:20:00,
2013-03-20 05:25:00,46.6,44.7,29.40,NNW,338,0.4,1.8,93,0.12,,,0.37,WUHU216HW,2013-03-20 12:25:00,
2013-03-20 05:30:00,46.6,44.7,29.39,NNE,23,0.0,0.4,93,0.14,,,0.39,WUHU216HW,2013-03-20 12:30:00,
2013-03-20 05:35:00,46.6,44.7,29.39,SW,225,0.0,1.8,93,0.14,,,0.41,WUHU216HW,2013-03-20 12:35:00,
2013-03-20 05:40:00,46.6,44.7,29.39,West,270,1.6,1.8,93,0.12,,,0.41,WUHU216HW,2013-03-20 12:40:00,
2013-03-20 05:45:00,46.6,44.7,29.39,NNE,23,0.4,2.2,93,0.13,,,0.43,WUHU216HW,2013-03-20 12:45:00,
2013-03-20 05:50:00,46.6,44.7,29.38,NNE,23,0.2,2.2,93,0.15,,,0.46,WUHU216HW,2013-03-20 12:50:00,
2013-03-20 05:55:00,46.6,44.7,29.38,SSE,158,0.2,1.1,93,0.14,,,0.46,WUHU216HW,2013-03-20 12:55:00,
2013-03-20 06:00:00,46.8,44.9,29.37,SSW,203,1.8,2.0,93,0.14,,,0.46,WUHU216HW,2013-03-20 13:00:00,
2013-03-20 06:05:00,46.8,44.9,29.38,SSW,203,0.7,3.6,93,0.14,,,0.46,WUHU216HW,2013-03-20 13:05:00,
2013-03-20 06:10:00,47.0,45.1,29.37,NNE,23,0.2,3.6,93,0.15,,,0.48,WUHU216HW,2013-03-20 13:10:00,
2013-03-20 06:15:00,47.0,45.1,29.37,ESE,113,0.7,1.8,93,0.14,,,0.48,WUHU216HW,2013-03-20 13:15:00,
2013-03-20 06:20:00,47.2,45.3,29.37,North,0,0.4,1.8,93,0.12,,,0.48,WUHU216HW,2013-03-20 13:20:00,
2013-03-20 06:25:00,47.2,45.3,29.37,SSE,158,0.4,1.8,93,0.11,,,0.48,WUHU216HW,2013-03-20 13:25:00,
2013-03-20 06:30:00,47.2,45.3,29.37,WSW,248,1.8,2.7,93,0.09,,,0.48,WUHU216HW,2013-03-20 13:30:00,
2013-03-20 06:35:00,47.2,45.5,29.37,NW,315,1.3,2.7,94,0.09,,,0.50,WUHU216HW,2013-03-20 13:35:00,
2013-03-20 06:40:00,47.3,45.7,29.37,North,0,0.7,1.8,94,0.09,,,0.50,WUHU216HW,2013-03-20 13:40:00,
2013-03-20 06:45:00,47.3,45.7,29.37,NNW,338,0.2,1.8,94,0.07,,,0.50,WUHU216HW,2013-03-20 13:45:00,
2013-03-20 06:50:00,47.3,45.7,29.37,NNW,338,1.8,1.8,94,0.06,,,0.52,WUHU216HW,2013-03-20 13:50:00,
2013-03-20 06:55:00,47.5,45.9,29.37,SE,135,1.1,1.8,94,0.06,,,0.52,WUHU216HW,2013-03-20 13:55:00,
2013-03-20 07:00:00,47.5,45.9,29.37,South,180,1.8,2.9,94,0.07,,,0.53,WUHU216HW,2013-03-20 14:00:00,
2013-03-20 07:05:00,47.5,45.9,29.36,SSW,203,2.7,3.6,94,0.08,,,0.54,WUHU216HW,2013-03-20 14:05:00,
2013-03-20 07:10:00,47.5,45.9,29.36,SW,225,2.0,3.6,94,0.07,,,0.55,WUHU216HW,2013-03-20 14:10:00,
2013-03-20 07:15:00,47.7,46.1,29.36,SSW,203,1.3,2.7,94,0.10,,,0.58,WUHU216HW,2013-03-20 14:15:00,
2013-03-20 07:20:00,47.9,46.3,29.36,SW,225,2.2,3.8,94,0.10,,,0.58,WUHU216HW,2013-03-20 14:20:00,
2013-03-20 07:25:00,48.1,46.4,29.36,WSW,248,3.4,5.8,94,0.10,,,0.58,WUHU216HW,2013-03-20 14:25:00,
2013-03-20 07:30:00,48.6,47.0,29.36,ESE,113,3.8,6.3,94,0.11,,,0.59,WUHU216HW,2013-03-20 14:30:00,
2013-03-20 07:35:00,48.8,47.2,29.36,SSW,203,7.6,7.6,94,0.09,,,0.59,WUHU216HW,2013-03-20 14:35:00,
2013-03-20 07:40:00,49.0,47.4,29.36,WSW,248,6.9,7.6,94,0.10,,,0.60,WUHU216HW,2013-03-20 14:40:00,
2013-03-20 07:45:00,49.1,47.4,29.37,SW,225,2.9,6.9,94,0.10,,,0.60,WUHU216HW,2013-03-20 14:45:00,
2013-03-20 07:50:00,49.0,47.4,29.36,SW,225,4.0,6.9,94,0.08,,,0.60,WUHU216HW,2013-03-20 14:50:00,
2013-03-20 07:55:00,49.1,47.4,29.37,SE,135,3.8,5.6,94,0.08,,,0.60,WUHU216HW,2013-03-20 14:55:00,
2013-03-20 08:00:00,49.3,47.6,29.37,WSW,248,3.8,5.8,94,0.07,,,0.60,WUHU216HW,2013-03-20 15:00:00,
2013-03-20 08:05:00,49.3,47.6,29.37,West,270,3.6,6.9,94,0.06,,,0.60,WUHU216HW,2013-03-20 15:05:00,
2013-03-20 08:10:00,49.3,47.6,29.37,SSW,203,2.5,6.9,94,0.06,,,0.61,WUHU216HW,2013-03-20 15:10:00,
2013-03-20 08:15:00,49.3,47.6,29.37,South,180,6.3,8.9,94,0.03,,,0.61,WUHU216HW,2013-03-20 15:15:00,
2013-03-20 08:20:00,49.5,47.8,29.37,WSW,248,9.2,9.2,94,0.04,,,0.62,WUHU216HW,2013-03-20 15:20:00,
2013-03-20 08:25:00,49.5,47.8,29.37,SSW,203,3.4,9.6,94,0.04,,,0.62,WUHU216HW,2013-03-20 15:25:00,
2013-03-20 08:30:00,49.5,47.8,29.37,SSE,158,3.4,9.6,94,0.03,,,0.62,WUHU216HW,2013-03-20 15:30:00,
2013-03-20 08:35:00,49.5,47.8,29.37,SSW,203,1.1,6.3,94,0.03,,,0.62,WUHU216HW,2013-03-20 15:35:00,
2013-03-20 08:40:00,49.5,47.8,29.37,SSE,158,4.0,8.7,94,0.03,,,0.63,WUHU216HW,2013-03-20 15:40:00,
2013-03-20 08:45:00,49.5,47.8,29.37,WSW,248,10.1,10.1,94,0.04,,,0.64,WUHU216HW,2013-03-20 15:45:00,
2013-03-20 08:50:00,49.5,47.8,29.38,SSE,158,6.7,10.1,94,0.04,,,0.64,WUHU216HW,2013-03-20 15:50:00,
2013-03-20 08:55:00,49.5,47.8,29.38,SE,135,2.0,10.1,94,0.04,,,0.64,WUHU216HW,2013-03-20 15:55:00,
2013-03-20 09:00:00,49.5,47.8,29.39,SSE,158,1.6,6.7,94,0.04,,,0.64,WUHU216HW,2013-03-20 16:00:00,
2013-03-20 09:05:00,49.3,47.6,29.40,SW,225,5.4,11.2,94,0.04,,,0.64,WUHU216HW,2013-03-20 16:05:00,
2013-03-20 09:10:00,49.1,47.4,29.40,WSW,248,9.4,12.3,94,0.03,,,0.64,WUHU216HW,2013-03-20 16:10:00,
2013-03-20 09:15:00,49.1,47.4,29.41,SSW,203,7.2,12.3,94,0.03,,,0.64,WUHU216HW,2013-03-20 16:15:00,
2013-03-20 09:20:00,48.8,47.2,29.41,West,270,6.5,14.3,94,0.02,,,0.64,WUHU216HW,2013-03-20 16:20:00,
2013-03-20 09:25:00,48.4,46.8,29.42,SW,225,4.7,14.3,94,0.02,,,0.64,WUHU216HW,2013-03-20 16:25:00,
2013-03-20 09:30:00,48.1,46.4,29.42,WSW,248,6.3,9.8,94,0.03,,,0.65,WUHU216HW,2013-03-20 16:30:00,
2013-03-20 09:35:00,47.9,46.3,29.43,SW,225,4.0,10.7,94,0.02,,,0.65,WUHU216HW,2013-03-20 16:35:00,
2013-03-20 09:40:00,47.5,45.9,29.44,SSE,158,3.4,12.5,94,0.02,,,0.65,WUHU216HW,2013-03-20 16:40:00,
2013-03-20 09:45:00,47.7,46.1,29.44,SSW,203,5.4,12.5,94,0.01,,,0.65,WUHU216HW,2013-03-20 16:45:00,
2013-03-20 09:50:00,47.7,46.1,29.45,SW,225,6.7,12.8,94,0.01,,,0.65,WUHU216HW,2013-03-20 16:50:00,
2013-03-20 09:55:00,47.7,45.8,29.45,WSW,248,7.6,12.8,93,0.01,,,0.65,WUHU216HW,2013-03-20 16:55:00,
2013-03-20 10:00:00,47.3,45.5,29.45,SW,225,6.7,12.1,93,0.01,,,0.65,WUHU216HW,2013-03-20 17:00:00,
2013-03-20 10:05:00,47.2,45.3,29.45,SW,225,11.9,12.1,93,0.01,,,0.65,WUHU216HW,2013-03-20 17:05:00,
2013-03-20 10:10:00,47.2,45.3,29.46,SW,225,6.3,13.9,93,0.01,,,0.65,WUHU216HW,2013-03-20 17:10:00,
2013-03-20 10:15:00,47.5,45.4,29.47,SSE,158,10.3,13.9,92,0.01,,,0.65,WUHU216HW,2013-03-20 17:15:00,
2013-03-20 10:20:00,47.5,45.4,29.47,SW,225,7.2,10.3,92,0.01,,,0.65,WUHU216HW,2013-03-20 17:20:00,
2013-03-20 10:25:00,47.7,45.5,29.48,SW,225,9.8,10.3,92,0.01,,,0.65,WUHU216HW,2013-03-20 17:25:00,
2013-03-20 10:30:00,47.7,45.5,29.48,SSW,203,5.1,9.8,92,0.00,,,0.65,WUHU216HW,2013-03-20 17:30:00,
2013-03-20 10:35:00,47.3,44.9,29.49,WNW,293,6.3,11.9,91,0.00,,,0.65,WUHU216HW,2013-03-20 17:35:00,
2013-03-20 10:40:00,47.0,44.6,29.50,SW,225,7.2,11.9,91,0.00,,,0.65,WUHU216HW,2013-03-20 17:40:00,
2013-03-20 10:45:00,46.8,44.4,29.50,SW,225,6.3,10.7,91,0.01,,,0.66,WUHU216HW,2013-03-20 17:45:00,
2013-03-20 10:50:00,46.8,44.6,29.50,WNW,293,1.8,10.7,92,0.01,,,0.66,WUHU216HW,2013-03-20 17:50:00,
2013-03-20 10:55:00,47.0,44.8,29.51,SSW,203,1.8,8.7,92,0.01,,,0.66,WUHU216HW,2013-03-20 17:55:00,
2013-03-20 11:00:00,47.2,45.0,29.51,SW,225,1.8,8.7,92,0.01,,,0.66,WUHU216HW,2013-03-20 18:00:00,
2013-03-20 11:05:00,47.3,44.9,29.51,WSW,248,11.6,11.6,91,0.01,,,0.66,WUHU216HW,2013-03-20 18:05:00,
2013-03-20 11:10:00,47.9,45.5,29.51,West,270,5.6,11.6,91,0.01,,,0.66,WUHU216HW,2013-03-20 18:10:00,
2013-03-20 11:15:00,48.4,45.7,29.51,South,180,11.4,11.6,90,0.01,,,0.66,WUHU216HW,2013-03-20 18:15:00,
2013-03-20 11:20:00,49.3,46.5,29.52,SSW,203,5.6,11.4,90,0.01,,,0.66,WUHU216HW,2013-03-20 18:20:00,
2013-03-20 11:25:00,50.2,47.1,29.52,SW,225,5.1,11.4,89,0.01,,,0.66,WUHU216HW,2013-03-20 18:25:00,
2013-03-20 11:30:00,50.0,45.9,29.52,SW,225,5.6,7.8,86,0.01,,,0.66,WUHU216HW,2013-03-20 18:30:00,
2013-03-20 11:35:00,50.0,45.9,29.53,SSW,203,5.6,7.8,86,0.01,,,0.66,WUHU216HW,2013-03-20 18:35:00,
2013-03-20 11:40:00,50.6,46.4,29.53,West,270,6.9,6.9,86,0.01,,,0.66,WUHU216HW,2013-03-20 18:40:00,
2013-03-20 11:45:00,50.8,46.1,29.53,ESE,113,4.3,7.6,84,0.00,,,0.66,WUHU216HW,2013-03-20 18:45:00,
2013-03-20 11:50:00,50.2,44.9,29.54,SW,225,4.9,15.0,82,0.00,,,0.66,WUHU216HW,2013-03-20 18:50:00,
2013-03-20 11:55:00,50.0,45.0,29.54,WSW,248,4.5,15.0,83,0.00,,,0.66,WUHU216HW,2013-03-20 18:55:00,
2013-03-20 12:00:00,50.4,45.4,29.54,SW,225,4.9,10.3,83,0.00,,,0.66,WUHU216HW,2013-03-20 19:00:00,
2013-03-20 12:05:00,50.4,45.4,29.55,SSW,203,5.4,10.3,83,0.00,,,0.66,WUHU216HW,2013-03-20 19:05:00,
2013-03-20 12:10:00,50.0,45.0,29.55,SSE,158,8.1,16.3,83,0.00,,,0.66,WUHU216HW,2013-03-20 19:10:00,
2013-03-20 12:15:00,49.3,44.3,29.55,WSW,248,6.0,16.3,83,0.00,,,0.66,WUHU216HW,2013-03-20 19:15:00,
2013-03-20 12:20:00,48.2,43.6,29.55,SW,225,0.9,10.1,84,0.00,,,0.66,WUHU216HW,2013-03-20 19:20:00,
2013-03-20 12:25:00,47.9,43.6,29.56,WSW,248,2.0,8.9,85,0.01,,,0.67,WUHU216HW,2013-03-20 19:25:00,
2013-03-20 12:30:00,47.5,43.6,29.57,NE,45,4.9,8.9,86,0.02,,,0.68,WUHU216HW,2013-03-20 19:30:00,
2013-03-20 12:35:00,46.8,43.2,29.57,South,180,5.1,9.6,87,0.03,,,0.69,WUHU216HW,2013-03-20 19:35:00,
2013-03-20 12:40:00,46.4,42.9,29.57,West,270,3.6,9.6,87,0.03,,,0.69,WUHU216HW,2013-03-20 19:40:00,
2013-03-20 12:45:00,46.6,43.3,29.58,SSW,203,4.0,6.0,88,0.03,,,0.69,WUHU216HW,2013-03-20 19:45:00,
2013-03-20 12:50:00,47.5,44.5,29.58,SW,225,3.4,10.1,89,0.03,,,0.69,WUHU216HW,2013-03-20 19:50:00,
2013-03-20 12:55:00,47.9,44.8,29.59,SSE,158,2.7,10.1,89,0.03,,,0.69,WUHU216HW,2013-03-20 19:55:00,
2013-03-20 13:00:00,47.9,44.8,29.59,SSW,203,5.6,8.7,89,0.03,,,0.69,WUHU216HW,2013-03-20 20:00:00,
2013-03-20 13:05:00,47.3,44.0,29.59,South,180,8.1,14.5,88,0.04,,,0.70,WUHU216HW,2013-03-20 20:05:00,
2013-03-20 13:10:00,46.8,43.5,29.60,SSE,158,1.1,14.5,88,0.05,,,0.71,WUHU216HW,2013-03-20 20:10:00,
2013-03-20 13:15:00,46.3,43.3,29.60,SSW,203,1.3,6.9,89,0.06,,,0.72,WUHU216HW,2013-03-20 20:15:00,
2013-03-20 13:20:00,46.3,43.3,29.60,WSW,248,3.4,8.9,89,0.06,,,0.72,WUHU216HW,2013-03-20 20:20:00,
2013-03-20 13:25:00,46.8,44.4,29.60,SW,225,6.9,11.4,91,0.05,,,0.72,WUHU216HW,2013-03-20 20:25:00,
2013-03-20 13:30:00,47.2,44.5,29.61,SE,135,1.1,11.4,90,0.04,,,0.72,WUHU216HW,2013-03-20 20:30:00,
2013-03-20 13:35:00,47.2,44.5,29.62,SE,135,4.0,8.7,90,0.03,,,0.72,WUHU216HW,2013-03-20 20:35:00,
2013-03-20 13:40:00,47.2,44.2,29.62,SW,225,5.6,8.5,89,0.03,,,0.72,WUHU216HW,2013-03-20 20:40:00,
2013-03-20 13:45:00,47.0,44.0,29.63,East,90,1.1,9.8,89,0.03,,,0.72,WUHU216HW,2013-03-20 20:45:00,
2013-03-20 13:50:00,46.8,43.5,29.63,SW,225,4.0,9.8,88,0.03,,,0.72,WUHU216HW,2013-03-20 20:50:00,
2013-03-20 13:55:00,46.4,43.1,29.63,ESE,113,4.0,9.8,88,0.03,,,0.72,WUHU216HW,2013-03-20 20:55:00,
2013-03-20 14:00:00,45.9,42.6,29.63,SSW,203,10.5,12.3,88,0.04,,,0.73,WUHU216HW,2013-03-20 21:00:00,
2013-03-20 14:05:00,45.7,42.8,29.63,SW,225,5.4,12.3,89,0.04,,,0.74,WUHU216HW,2013-03-20 21:05:00,
2013-03-20 14:10:00,45.5,42.8,29.63,WSW,248,6.7,10.7,90,0.03,,,0.74,WUHU216HW,2013-03-20 21:10:00,
2013-03-20 14:15:00,46.1,43.7,29.63,SW,225,6.0,10.7,91,0.02,,,0.74,WUHU216HW,2013-03-20 21:15:00,
2013-03-20 14:20:00,46.4,44.0,29.64,SW,225,2.5,10.7,91,0.02,,,0.74,WUHU216HW,2013-03-20 21:20:00,
2013-03-20 14:25:00,46.6,44.2,29.64,ESE,113,1.8,9.2,91,0.02,,,0.74,WUHU216HW,2013-03-20 21:25:00,
2013-03-20 14:30:00,46.8,44.1,29.64,SSE,158,8.7,9.2,90,0.02,,,0.74,WUHU216HW,2013-03-20 21:30:00,
2013-03-20 14:35:00,46.8,44.1,29.64,West,270,4.7,9.2,90,0.02,,,0.74,WUHU216HW,2013-03-20 21:35:00,
2013-03-20 14:40:00,46.8,43.8,29.65,SE,135,7.6,10.3,89,0.02,,,0.74,WUHU216HW,2013-03-20 21:40:00,
2013-03-20 14:45:00,46.4,43.1,29.64,SE,135,5.4,10.3,88,0.02,,,0.74,WUHU216HW,2013-03-20 21:45:00,
2013-03-20 14:50:00,46.3,42.9,29.64,SW,225,7.8,9.2,88,0.02,,,0.74,WUHU216HW,2013-03-20 21:50:00,
2013-03-20 14:55:00,46.1,42.5,29.65,SE,135,1.3,12.5,87,0.02,,,0.74,WUHU216HW,2013-03-20 21:55:00,
2013-03-20 15:00:00,46.3,42.7,29.65,WSW,248,11.6,12.5,87,0.01,,,0.74,WUHU216HW,2013-03-20 22:00:00,
2013-03-20 15:05:00,46.4,42.9,29.65,WSW,248,4.7,17.4,87,0.00,,,0.74,WUHU216HW,2013-03-20 22:05:00,
2013-03-20 15:10:00,46.4,42.2,29.65,WSW,248,9.6,17.4,85,0.00,,,0.74,WUHU216HW,2013-03-20 22:10:00,
2013-03-20 15:15:00,46.4,42.2,29.65,SSW,203,4.7,11.4,85,0.00,,,0.74,WUHU216HW,2013-03-20 22:15:00,
2013-03-20 15:20:00,46.3,42.0,29.65,West,270,6.7,11.6,85,0.00,,,0.74,WUHU216HW,2013-03-20 22:20:00,
2013-03-20 15:25:00,46.4,42.2,29.66,SSE,158,4.3,11.6,85,0.00,,,0.74,WUHU216HW,2013-03-20 22:25:00,
2013-03-20 15:30:00,46.6,42.0,29.66,South,180,8.9,12.8,84,0.00,,,0.74,WUHU216HW,2013-03-20 22:30:00,
2013-03-20 15:35:00,46.6,41.8,29.66,SW,225,6.5,13.0,83,0.00,,,0.74,WUHU216HW,2013-03-20 22:35:00,
2013-03-20 15:40:00,46.6,41.8,29.66,SSW,203,13.2,13.2,83,0.00,,,0.74,WUHU216HW,2013-03-20 22:40:00,
2013-03-20 15:45:00,46.8,42.0,29.66,West,270,11.0,13.2,83,0.00,,,0.74,WUHU216HW,2013-03-20 22:45:00,
2013-03-20 15:50:00,46.8,41.6,29.66,SSE,158,4.0,13.2,82,0.00,,,0.74,WUHU216HW,2013-03-20 22:50:00,
2013-03-20 15:55:00,47.2,41.7,29.66,WSW,248,15.9,15.9,81,0.00,,,0.74,WUHU216HW,2013-03-20 22:55:00,
2013-03-20 16:00:00,47.3,41.8,29.67,SE,135,8.7,15.9,81,0.00,,,0.74,WUHU216HW,2013-03-20 23:00:00,
2013-03-20 16:05:00,47.7,42.1,29.67,WSW,248,1.8,13.0,81,0.00,,,0.74,WUHU216HW,2013-03-20 23:05:00,
2013-03-20 16:10:00,47.7,41.9,29.68,SE,135,4.7,11.4,80,0.00,,,0.74,WUHU216HW,2013-03-20 23:10:00,
2013-03-20 16:15:00,47.5,41.7,29.68,SSW,203,8.3,13.9,80,0.00,,,0.74,WUHU216HW,2013-03-20 23:15:00,
2013-03-20 16:20:00,47.2,41.3,29.68,WSW,248,4.7,13.9,80,0.00,,,0.74,WUHU216HW,2013-03-20 23:20:00,
2013-03-20 16:25:00,46.8,41.1,29.68,WSW,248,6.3,12.8,80,0.00,,,0.74,WUHU216HW,2013-03-20 23:25:00,
2013-03-20 16:30:00,47.0,41.5,29.68,SSE,158,2.9,11.6,81,0.00,,,0.74,WUHU216HW,2013-03-20 23:30:00,
2013-03-20 16:35:00,47.2,41.3,29.68,WSW,248,12.8,12.8,80,0.00,,,0.74,WUHU216HW,2013-03-20 23:35:00,
2013-03-20 16:40:00,47.3,41.1,29.68,WSW,248,6.9,12.8,79,0.00,,,0.74,WUHU216HW,2013-03-20 23:40:00,
2013-03-20 16:45:00,47.2,40.7,29.69,SSW,203,11.0,15.0,78,0.00,,,0.74,WUHU216HW,2013-03-20 23:45:00,
2013-03-20 16:50:00,47.2,40.7,29.68,WSW,248,9.8,15.0,78,0.00,,,0.74,WUHU216HW,2013-03-20 23:50:00,
2013-03-20 16:55:00,46.8,40.3,29.69,ESE,113,9.8,15.7,78,0.00,,,0.74,WUHU216HW,2013-03-20 23:55:00,
2013-03-20 17:00:00,46.6,40.5,29.70,SW,225,10.3,15.7,79,0.00,,,0.74,WUHU216HW,2013-03-21 00:00:00,
2013-03-20 17:05:00,46.4,40.3,29.71,SSE,158,3.8,15.4,79,0.00,,,0.74,WUHU216HW,2013-03-21 00:05:00,
2013-03-20 17:10:00,46.4,40.3,29.71,SE,135,4.7,13.9,79,0.00,,,0.74,WUHU216HW,2013-03-21 00:10:00,
2013-03-20 17:15:00,46.4,40.3,29.71,South,180,3.4,14.3,79,0.00,,,0.74,WUHU216HW,2013-03-21 00:15:00,
2013-03-20 17:20:00,46.3,40.5,29.72,SSW,203,11.2,14.3,80,0.00,,,0.74,WUHU216HW,2013-03-21 00:20:00,
2013-03-20 17:25:00,46.3,40.5,29.72,South,180,2.2,11.2,80,0.00,,,0.74,WUHU216HW,2013-03-21 00:25:00,
2013-03-20 17:30:00,46.3,40.5,29.73,SW,225,7.2,11.2,80,0.00,,,0.74,WUHU216HW,2013-03-21 00:30:00,
2013-03-20 17:35:00,46.3,40.5,29.73,West,270,5.1,11.0,80,0.00,,,0.74,WUHU216HW,2013-03-21 00:35:00,
2013-03-20 17:40:00,46.1,40.0,29.73,West,270,12.3,12.3,79,0.00,,,0.74,WUHU216HW,2013-03-21 00:40:00,
2013-03-20 17:45:00,46.1,40.3,29.73,SSW,203,4.3,12.3,80,0.00,,,0.74,WUHU216HW,2013-03-21 00:45:00,
2013-03-20 17:50:00,45.9,39.8,29.73,SSW,203,5.4,12.3,79,0.00,,,0.74,WUHU216HW,2013-03-21 00:50:00,
2013-03-20 17:55:00,46.1,40.0,29.74,SW,225,7.6,12.1,79,0.00,,,0.74,WUHU216HW,2013-03-21 00:55:00,
2013-03-20 18:00:00,45.7,39.6,29.75,West,270,4.3,9.8,79,0.00,,,0.74,WUHU216HW,2013-03-21 01:00:00,
2013-03-20 18:05:00,45.5,39.1,29.75,SW,225,8.5,12.3,78,0.00,,,0.74,WUHU216HW,2013-03-21 01:05:00,
2013-03-20 18:10:00,45.2,39.1,29.75,WNW,293,4.5,12.3,79,0.00,,,0.74,WUHU216HW,2013-03-21 01:10:00,
2013-03-20 18:15:00,45.0,38.9,29.76,WSW,248,10.7,11.0,79,0.00,,,0.74,WUHU216HW,2013-03-21 01:15:00,
2013-03-20 18:20:00,44.6,38.5,29.76,WSW,248,11.9,11.9,79,0.00,,,0.74,WUHU216HW,2013-03-21 01:20:00,
2013-03-20 18:25:00,44.5,38.3,29.76,WNW,293,9.6,11.9,79,0.00,,,0.74,WUHU216HW,2013-03-21 01:25:00,
2013-03-20 18:30:00,44.1,37.7,29.77,WSW,248,10.7,14.3,78,0.00,,,0.74,WUHU216HW,2013-03-21 01:30:00,
2013-03-20 18:35:00,44.1,38.0,29.77,SW,225,5.8,14.3,79,0.00,,,0.74,WUHU216HW,2013-03-21 01:35:00,
2013-03-20 18:40:00,43.7,37.4,29.78,WSW,248,8.1,14.5,78,0.00,,,0.74,WUHU216HW,2013-03-21 01:40:00,
2013-03-20 18:45:00,43.6,37.2,29.79,WSW,248,7.6,14.5,78,0.00,,,0.74,WUHU216HW,2013-03-21 01:45:00,
2013-03-20 18:50:00,43.2,37.1,29.79,SW,225,7.6,10.5,79,0.00,,,0.74,WUHU216HW,2013-03-21 01:50:00,
2013-03-20 18:55:00,42.8,36.7,29.79,South,180,6.9,13.9,79,0.00,,,0.74,WUHU216HW,2013-03-21 01:55:00,
2013-03-20 19:00:00,42.7,36.5,29.79,SSE,158,4.5,13.9,79,0.00,,,0.74,WUHU216HW,2013-03-21 02:00:00,
2013-03-20 19:05:00,42.5,36.4,29.79,SW,225,8.7,20.8,79,0.00,,,0.74,WUHU216HW,2013-03-21 02:05:00,
2013-03-20 19:10:00,42.1,36.0,29.80,West,270,6.9,20.8,79,0.00,,,0.74,WUHU216HW,2013-03-21 02:10:00,
2013-03-20 19:15:00,41.9,36.2,29.81,WSW,248,6.0,11.4,80,0.00,,,0.74,WUHU216HW,2013-03-21 02:15:00,
2013-03-20 19:20:00,41.8,36.0,29.81,WSW,248,5.4,11.4,80,0.00,,,0.74,WUHU216HW,2013-03-21 02:20:00,
2013-03-20 19:25:00,41.6,35.8,29.81,West,270,1.8,12.8,80,0.00,,,0.74,WUHU216HW,2013-03-21 02:25:00,
2013-03-20 19:30:00,41.4,35.6,29.81,SW,225,3.8,12.8,80,0.00,,,0.74,WUHU216HW,2013-03-21 02:30:00,
2013-03-20 19:35:00,41.4,35.9,29.82,SW,225,6.3,10.7,81,0.00,,,0.74,WUHU216HW,2013-03-21 02:35:00,
2013-03-20 19:40:00,41.2,35.7,29.82,SE,135,4.7,9.2,81,0.00,,,0.74,WUHU216HW,2013-03-21 02:40:00,
2013-03-20 19:45:00,41.0,35.6,29.83,SSW,203,3.4,9.2,81,0.00,,,0.74,WUHU216HW,2013-03-21 02:45:00,
2013-03-20 19:50:00,40.9,35.5,29.84,WSW,248,6.3,11.4,81,0.00,,,0.74,WUHU216HW,2013-03-21 02:50:00,
2013-03-20 19:55:00,40.7,35.3,29.83,SSW,203,6.9,12.8,81,0.00,,,0.74,WUHU216HW,2013-03-21 02:55:00,
2013-03-20 20:00:00,40.7,35.3,29.84,WSW,248,6.3,12.8,81,0.00,,,0.74,WUHU216HW,2013-03-21 03:00:00,
2013-03-20 20:05:00,40.7,35.3,29.84,South,180,7.6,11.4,81,0.00,,,0.74,WUHU216HW,2013-03-21 03:05:00,
2013-03-20 20:10:00,40.7,35.3,29.84,WSW,248,11.2,11.4,81,0.00,,,0.74,WUHU216HW,2013-03-21 03:10:00,
2013-03-20 20:15:00,40.7,35.3,29.84,WSW,248,5.4,12.8,81,0.00,,,0.74,WUHU216HW,2013-03-21 03:15:00,
2013-03-20 20:20:00,40.7,35.3,29.85,SW,225,8.9,12.8,81,0.00,,,0.74,WUHU216HW,2013-03-21 03:20:00,
2013-03-20 20:25:00,40.7,35.3,29.85,South,180,11.0,12.8,81,0.00,,,0.74,WUHU216HW,2013-03-21 03:25:00,
2013-03-20 20:30:00,40.5,35.1,29.85,SW,225,4.3,12.8,81,0.00,,,0.74,WUHU216HW,2013-03-21 03:30:00,
2013-03-20 20:35:00,40.5,34.8,29.85,WSW,248,14.3,16.3,80,0.00,,,0.74,WUHU216HW,2013-03-21 03:35:00,
2013-03-20 20:40:00,40.5,34.8,29.86,WSW,248,8.1,16.3,80,0.00,,,0.74,WUHU216HW,2013-03-21 03:40:00,
2013-03-20 20:45:00,40.3,34.3,29.86,WSW,248,7.8,11.2,79,0.00,,,0.74,WUHU216HW,2013-03-21 03:45:00,
2013-03-20 20:50:00,40.3,34.7,29.86,WSW,248,11.0,11.2,80,0.00,,,0.74,WUHU216HW,2013-03-21 03:50:00,
2013-03-20 20:55:00,40.1,34.1,29.87,West,270,4.7,11.0,79,0.00,,,0.74,WUHU216HW,2013-03-21 03:55:00,
2013-03-20 21:00:00,40.0,33.9,29.88,WSW,248,3.6,11.0,79,0.00,,,0.74,WUHU216HW,2013-03-21 04:00:00,
2013-03-20 21:05:00,40.0,33.9,29.88,WSW,248,4.3,12.1,79,0.00,,,0.74,WUHU216HW,2013-03-21 04:05:00,
2013-03-20 21:10:00,40.0,33.9,29.89,South,180,5.4,12.1,79,0.00,,,0.74,WUHU216HW,2013-03-21 04:10:00,
2013-03-20 21:15:00,39.8,33.9,29.89,NE,45,4.0,9.4,79,0.00,,,0.74,WUHU216HW,2013-03-21 04:15:00,
2013-03-20 21:20:00,39.8,33.9,29.90,SE,135,2.9,7.8,79,0.00,,,0.74,WUHU216HW,2013-03-21 04:20:00,
2013-03-20 21:25:00,39.8,33.9,29.90,WSW,248,8.5,10.1,79,0.00,,,0.74,WUHU216HW,2013-03-21 04:25:00,
2013-03-20 21:30:00,39.8,33.9,29.91,South,180,9.2,10.5,79,0.00,,,0.74,WUHU216HW,2013-03-21 04:30:00,
2013-03-20 21:35:00,39.8,33.9,29.91,SSE,158,2.7,13.6,79,0.00,,,0.74,WUHU216HW,2013-03-21 04:35:00,
2013-03-20 21:40:00,39.8,33.9,29.91,WSW,248,4.0,13.6,79,0.00,,,0.74,WUHU216HW,2013-03-21 04:40:00,
2013-03-20 21:45:00,39.6,33.7,29.91,WSW,248,9.4,17.2,79,0.00,,,0.74,WUHU216HW,2013-03-21 04:45:00,
2013-03-20 21:50:00,39.6,34.0,29.92,NW,315,12.5,17.2,80,0.00,,,0.74,WUHU216HW,2013-03-21 04:50:00,
2013-03-20 21:55:00,39.4,33.9,29.92,SW,225,5.4,12.5,80,0.00,,,0.74,WUHU216HW,2013-03-21 04:55:00,
2013-03-20 22:00:00,39.2,33.7,29.92,WSW,248,9.4,11.4,80,0.00,,,0.74,WUHU216HW,2013-03-21 05:00:00,
2013-03-20 22:05:00,39.2,33.9,29.93,WSW,248,7.4,15.9,81,0.00,,,0.74,WUHU216HW,2013-03-21 05:05:00,
2013-03-20 22:10:00,39.2,33.9,29.93,WSW,248,4.0,15.9,81,0.00,,,0.74,WUHU216HW,2013-03-21 05:10:00,
2013-03-20 22:15:00,39.1,33.8,29.94,West,270,8.1,8.7,81,0.00,,,0.74,WUHU216HW,2013-03-21 05:15:00,
2013-03-20 22:20:00,38.9,33.6,29.94,WSW,248,7.6,9.2,81,0.00,,,0.74,WUHU216HW,2013-03-21 05:20:00,
2013-03-20 22:25:00,38.7,33.4,29.94,SSW,203,2.5,11.9,81,0.00,,,0.74,WUHU216HW,2013-03-21 05:25:00,
2013-03-20 22:30:00,38.5,33.5,29.94,SSW,203,3.8,11.9,82,0.00,,,0.74,WUHU216HW,2013-03-21 05:30:00,
2013-03-20 22:35:00,38.5,33.5,29.95,SW,225,8.7,12.8,82,0.00,,,0.74,WUHU216HW,2013-03-21 05:35:00,
2013-03-20 22:40:00,38.5,33.5,29.95,South,180,1.6,12.8,82,0.00,,,0.74,WUHU216HW,2013-03-21 05:40:00,
2013-03-20 22:45:00,38.3,33.3,29.96,WSW,248,6.3,8.9,82,0.00,,,0.74,WUHU216HW,2013-03-21 05:45:00,
2013-03-20 22:50:00,38.3,33.3,29.97,SW,225,1.8,6.7,82,0.00,,,0.74,WUHU216HW,2013-03-21 05:50:00,
2013-03-20 22:55:00,38.3,33.3,29.97,WSW,248,1.8,8.3,82,0.00,,,0.74,WUHU216HW,2013-03-21 05:55:00,
2013-03-20 23:00:00,38.3,33.3,29.97,WSW,248,1.8,8.3,82,0.00,,,0.74,WUHU216HW,2013-03-21 06:00:00,
2013-03-20 23:05:00,38.3,33.3,29.97,SW,225,6.7,11.6,82,0.00,,,0.74,WUHU216HW,2013-03-21 06:05:00,
2013-03-20 23:10:00,38.5,33.5,29.97,SSW,203,3.8,11.6,82,0.00,,,0.74,WUHU216HW,2013-03-21 06:10:00,
2013-03-20 23:15:00,38.5,33.9,29.97,SSW,203,4.5,9.2,83,0.00,,,0.74,WUHU216HW,2013-03-21 06:15:00,
2013-03-20 23:20:00,38.5,34.1,29.98,West,270,5.6,9.8,84,0.00,,,0.74,WUHU216HW,2013-03-21 06:20:00,
2013-03-20 23:25:00,38.5,34.1,29.98,SW,225,2.7,9.8,84,0.00,,,0.74,WUHU216HW,2013-03-21 06:25:00,
2013-03-20 23:30:00,38.5,34.1,29.98,SW,225,6.9,8.3,84,0.00,,,0.74,WUHU216HW,2013-03-21 06:30:00,
2013-03-20 23:35:00,38.5,34.1,29.99,WSW,248,4.7,11.4,84,0.00,,,0.74,WUHU216HW,2013-03-21 06:35:00,
2013-03-20 23:40:00,38.5,34.1,29.99,SW,225,5.1,11.4,84,0.00,,,0.74,WUHU216HW,2013-03-21 06:40:00,
2013-03-20 23:45:00,38.5,34.1,29.99,SSW,203,3.4,8.7,84,0.00,,,0.74,WUHU216HW,2013-03-21 06:45:00,
2013-03-20 23:50:00,38.5,34.1,29.99,SW,225,4.0,7.4,84,0.00,,,0.74,WUHU216HW,2013-03-21 06:50:00,
2013-03-20 23:55:00,38.5,33.9,29.98,WSW,248,5.4,16.3,83,0.00,,,0.74,WUHU216HW,2013-03-21 06:55:00,